{"data":{"norad_id":63419,"epoch":"2026-09-20T21:56:58.446240Z","epoch_age_seconds":123040,"freshness":"FRESH","line1":"1 63419U 25065W   26263.91456535  .00011859  00000+0  43972-3 0  9999","line2":"2 63419  43.0013  84.7871 0000668 312.9472  47.1324 15.27584798 82691","mean_motion":15.27584798,"eccentricity":6.68e-5,"inclination_deg":43.0013,"raan_deg":84.7871,"arg_perigee_deg":312.9472,"mean_anomaly_deg":47.1324,"bstar":0.00043972,"rev_number":8269,"period_min":94.266452630671,"perigee_km":482.57640286768,"apogee_km":483.49305541069,"semimajor_km":6861.1717291392,"source":"CELESTRAK","updated_at":"2026-09-21T09:00:34.981858Z"}}